Content
SEND FEEDBACK

Daily
Averages
Monthly
Summary
Turkmenistan

ASHGABAT, TURKMENISTAN


Home > Asia > Turkmenistan
Elevation: 775 feet     Latitude: 37 58N     Longitude: 058 20E

WEATHER
 
SELECT A DAY
Number of Records: 180,332;   Date Range: 3/15/97 - 9/28/14
 
SHARE

PRINT THIS DATA

[ ← Previous Day ]
WEATHER ALMANAC - JULY 18, 2013
[ Next Day → ]
[ °C ]   °F
Weather ElementAverageHighLow
Temperature97 °F111.2 °F (3:00 pm)80.6 °F (6:00 am)
Dewpoint44.4 °F59 °F (8:00 am)37 °F (5:00 pm)
Humidity16.5 %29 % (8:00 am)4 % (5:00 pm)
Barometer29.66 in29.74 in (8:00 am)29.57 in (8:00 pm)
Wind Speed10.2 mph17.9 mph (5:00 pm)
Wind Gust20.1 mph (3:30 pm)
Weather ElementAverage
Visibility6.1 mi
Wind DirectionSSE (167.3 °)

Weather ElementTotal
Precipitation---
Cooling Degree Days30.9 (Base 65)
Growing Degree Days45.9 (Base 50)
Averaged from 40 records on July 18, 2013
WEATHER CONDITIONS BREAKOUT
WIND DIRECTION BREAKOUT
WEATHER BY HOUR - JULY 18, 2013
[ °C ]   °F
Local TimeTemperatureDewpointHumidityBarometerVisibilityWind DirectionWind SpeedGust SpeedPrecipitationEventsConditions
1:00 AM87.8 °F39.2 °F18 %29.68 in6.2 miSouth (190°)6.7 mphClear
2:00 AM87.0 °F42.0 °F12 %29.65 in6.0 miSouth (190°)2.2 mph
2:00 AM86.0 °F39.2 °F19 %29.68 in5.0 miSouth (190°)8.9 mphClear
3:00 AM84.2 °F41.0 °F22 %29.68 in6.2 miSouth (180°)6.7 mphClear
4:00 AM82.4 °F41.0 °F23 %29.65 in6.2 miSouth (190°)6.7 mphClear
5:00 AM82.4 °F41.0 °F23 %29.68 in6.2 miSouth (170°)6.7 mphClear
5:00 AM82.0 °F46.0 °F18 %29.66 in6.0 miSSE (150°)6.7 mph
6:00 AM80.6 °F41.0 °F24 %29.68 in5.6 miVariable2.2 mphClear
7:00 AM82.4 °F44.6 °F26 %29.71 in6.2 miWest (270°)6.7 mphClear
8:00 AM87.8 °F51.8 °F29 %29.74 in6.2 miWNW (290°)11.2 mphClear
8:00 AM87.0 °F59.0 °F29 %29.69 in6.0 miWNW (290°)11.2 mph
9:00 AM89.6 °F48.2 °F24 %29.74 in6.2 miWNW (300°)11.2 mphClear
9:30 AM91.4 °F42.8 °F18 %29.74 in6.2 miWNW (300°)13.4 mphClear
10:00 AM91.4 °F50.0 °F24 %29.74 in6.2 miWNW (300°)13.4 mphClear
10:30 AM93.2 °F53.6 °F26 %29.74 in6.2 miWNW (300°)13.4 mphClear
11:00 AM95.0 °F53.6 °F25 %29.74 in6.2 miNW (310°)11.2 mphClear
11:00 AM95.0 °F56.0 °F18 %29.71 in6.0 miNW (310°)11.2 mph
12:00 PM98.6 °F55.4 °F24 %29.71 in6.2 miNW (320°)8.9 mphClear
1:00 PM104.0 °F51.8 °F17 %29.71 in6.2 miNW (310°)6.7 mphClear
1:30 PM105.8 °F46.4 °F14 %29.68 in6.2 miCalmClear
2:00 PM107.6 °F42.8 °F11 %29.68 in6.2 miNNE (20°)6.7 mphClear
2:00 PM105.0 °F50.0 °F9 %29.66 in6.0 miNE (50°)8.9 mph
2:30 PM109.4 °F39.2 °F9 %29.65 in6.2 miSE (140°)6.7 mphClear
3:00 PM111.2 °F37.4 °F8 %29.65 in6.2 miEast (100°)13.4 mphClear
3:30 PM109.4 °F37.4 °F9 %29.65 in6.2 miEast (90°)8.9 mph20.1 mphClear
4:00 PM109.4 °F37.4 °F9 %29.62 in6.2 miEast (80°)15.7 mphClear
4:30 PM109.4 °F37.4 °F9 %29.62 in6.2 miEast (90°)15.7 mphClear
5:00 PM109.0 °F37.0 °F4 %29.59 in6.0 miEast (90°)17.9 mph
5:00 PM109.4 °F39.2 °F9 %29.62 in6.2 miEast (90°)17.9 mphClear
5:30 PM107.6 °F37.4 °F9 %29.59 in6.2 miEast (90°)17.9 mphClear
6:00 PM107.6 °F39.2 °F10 %29.59 in6.2 miEast (90°)17.9 mphClear
6:30 PM105.8 °F39.2 °F10 %29.59 in6.2 miEast (90°)15.7 mphClear
7:00 PM105.8 °F39.2 °F10 %29.59 in6.2 miEast (100°)15.7 mphClear
7:30 PM104.0 °F41.0 °F12 %29.59 in6.2 miEast (90°)13.4 mphClear
8:00 PM102.0 °F47.0 °F9 %29.57 in6.0 miEast (100°)13.4 mph
8:00 PM100.4 °F42.8 °F14 %29.62 in6.2 miEast (100°)11.2 mphClear
9:00 PM96.8 °F42.8 °F16 %29.62 in6.2 miEast (90°)8.9 mphClear
10:00 PM93.2 °F44.6 °F19 %29.62 in6.2 miSE (130°)4.5 mphClear
11:00 PM90.0 °F55.0 °F21 %29.61 in6.0 miWSW (250°)6.7 mph
11:00 PM91.4 °F46.4 °F21 %29.65 in6.2 miWSW (250°)6.7 mphClear
Hourly data recorded from UTAA, located miles away from Ashgabat, Turkmenistan







STORIES FROM OUR PARTNERS